Weather History for San Antonio Stinson, TX

Change the Weather History Date:

Wednesday, April 24, 2013

  Actual Average Record
Temperature  
Mean Temperature 56 °F -  
Max Temperature 64 °F 80 °F 93 °F (2003)
Min Temperature 48 °F 61 °F 46 °F (2005)
Degree Days  
Heating Degree Days 10    
Growing Degree Days 6 (Base 50)    
Moisture  
Dew Point 36 °F    
Average Humidity 50    
Maximum Humidity 77    
Minimum Humidity 34    
Precipitation  
Precipitation 0.01 in - - ()
Sea Level Pressure  
Sea Level Pressure 30.16 in    
Wind  
Wind Speed 14 mph (NNE)    
Max Wind Speed 23 mph    
Max Gust Speed 31 mph    
Visibility 10 miles    
Events      
Averages and records for this station are not official NWS values.
T = Trace of Precipitation, MM = Missing Value Source: NWS Daily Summary

Daily Weather History Graph

Daily Weather History Graph

Search for Another Location

Airport:

Trip Planner

Search our weather history database for the weather conditions in past years. The results will help you decide how hot, cold, wet, or windy it might be!

Date:

Astronomy

Apr. 24, 2013 Rise Set
Actual Time 6:58 AM CDT 8:06 PM CDT
Civil Twilight 6:33 AM CDT 8:30 PM CDT
Nautical Twilight 6:04 AM CDT 9:00 PM CDT
Astronomical Twilight 5:33 AM CDT 9:30 PM CDT
Moon 7:13 PM CDT (4/24) 5:57 AM CDT (4/24)
Length of Visible Light 13h 57m
Length of Day
13h 07m
Waxing Gibbous, 98% of the Moon is Illuminated
Apr 24
Waxing Gibbous
Apr 25
Full
May 2
Last Quarter
May 9
New
May 17
First Quarter

Hourly Weather History & Observations

Time (CDT) Temp. Dew Point Humidity Pressure Visibility Wind Dir Wind Speed Gust Speed Precip Events Conditions
12:53 AM 55.9 °F 41.0 °F 57% 30.04 in 10.0 mi NNE 13.8 mph 25.3 mph N/A   Overcast
1:53 AM 53.1 °F 41.0 °F 64% 30.06 in 10.0 mi North 13.8 mph 23.0 mph N/A   Overcast
2:53 AM 51.1 °F 41.0 °F 68% 30.07 in 10.0 mi NNE 16.1 mph 31.1 mph N/A   Overcast
3:53 AM 50.0 °F 39.9 °F 68% 30.10 in 10.0 mi NNE 15.0 mph 23.0 mph N/A   Overcast
5:53 AM 48.0 °F 41.0 °F 77% 30.12 in 10.0 mi NNE 8.1 mph 19.6 mph 0.00 in   Overcast
6:36 AM 48.2 °F 39.2 °F 71% 30.13 in 10.0 mi NNE 21.9 mph 31.1 mph 0.01 in   Overcast
6:53 AM 48.0 °F 39.0 °F 71% 30.14 in 10.0 mi North 23.0 mph 31.1 mph 0.01 in   Overcast
7:53 AM 48.0 °F 36.0 °F 63% 30.18 in 10.0 mi NNE 16.1 mph 23.0 mph N/A   Overcast
8:53 AM 48.0 °F 36.0 °F 63% 30.20 in 10.0 mi North 15.0 mph 21.9 mph 0.00 in   Overcast
9:53 AM 48.9 °F 35.1 °F 59% 30.21 in 10.0 mi North 16.1 mph 23.0 mph N/A   Overcast
10:53 AM 52.0 °F 34.0 °F 50% 30.22 in 10.0 mi North 18.4 mph 28.8 mph N/A   Overcast
11:53 AM 54.0 °F 33.1 °F 45% 30.21 in 10.0 mi North 13.8 mph 25.3 mph N/A   Overcast
12:53 PM 57.9 °F 34.0 °F 41% 30.19 in 10.0 mi North 13.8 mph 20.7 mph N/A   Overcast
1:53 PM 59.0 °F 33.1 °F 38% 30.19 in 10.0 mi North 15.0 mph 21.9 mph N/A   Overcast
2:53 PM 62.1 °F 33.1 °F 34% 30.18 in 10.0 mi NE 13.8 mph - N/A   Overcast
3:53 PM 61.0 °F 33.1 °F 35% 30.17 in 10.0 mi North 11.5 mph - N/A   Overcast
4:53 PM 63.0 °F 34.0 °F 34% 30.15 in 10.0 mi NNE 10.4 mph - N/A   Overcast
5:53 PM 63.0 °F 34.0 °F 34% 30.15 in 10.0 mi NE 10.4 mph - N/A   Scattered Clouds
6:53 PM 63.0 °F 34.0 °F 34% 30.14 in 10.0 mi NNE 6.9 mph - N/A   Overcast
7:53 PM 62.1 °F 34.0 °F 35% 30.16 in 10.0 mi ENE 6.9 mph - N/A   Overcast
8:53 PM 61.0 °F 36.0 °F 39% 30.19 in 10.0 mi NE 9.2 mph - N/A   Overcast
9:53 PM 60.1 °F 37.0 °F 42% 30.20 in 10.0 mi NNE 11.5 mph - N/A   Overcast
10:53 PM 61.0 °F 36.0 °F 39% 30.23 in 10.0 mi NE 9.2 mph - N/A   Overcast
11:53 PM 60.1 °F 37.0 °F 42% 30.23 in 10.0 mi NNE 6.9 mph - N/A   Overcast